Regional Weather Roundup
Issued by NWS

Home | Current Version | Previous Version | Text Only | Print | Product List | Glossary Off
Versions: 1 2 3 4 5 6 7 8 9 10 11 12 13 14 15 16 17 18 19 20 21 22 23 24 25 26 27 28 29 30 31 32 33 34 35 36 37 38 39 40 41 42 43 44 45 46 47 48 49 50

000
ASUS45 KBOI 240610
RWRID

IDAHO REGIONAL WEATHER ROUNDUP
NATIONAL WEATHER SERVICE BOISE ID
1200 AM MDT MON JUL 24 2017

NOTE: "FAIR" INDICATES FEW OR NO CLOUDS BELOW 12000 FEET
WITH NO SIGNIFICANT WEATHER AND/OR OBSTRUCTIONS TO VISIBILITY

IDZ012-014-240700-
SOUTHWEST IDAHO


CITY           SKY/WX    TMP DP  RH WIND       PRES   REMARKS
BOISE          PTCLDY    76  39  26 E5        29.87R
CALDWELL       PTCLDY    70  59  68 N7        29.84S
MOUNTAIN HOME  PTCLDY    81  41  24 N3        29.88R
$$

IDZ016-017-240700-
SOUTHCENTRAL IDAHO


CITY           SKY/WX    TMP DP  RH WIND       PRES   REMARKS
BURLEY         CLOUDY    70  45  40 S10       29.97S
JEROME         MOCLDY    78  44  29 SE6       29.98R
TWIN FALLS     CLOUDY    75  43  31 S12       29.97F
$$

IDZ019>023-240700-
SOUTHEAST IDAHO


CITY           SKY/WX    TMP DP  RH WIND       PRES   REMARKS
IDAHO FALLS    CLOUDY    68  45  43 SW6       30.00S
POCATELLO      CLOUDY    74  37  26 S9        30.00S
REXBURG        CLOUDY    72  40  31 SW8       30.01R
$$

IDZ006-010-011-018-031-032-240700-
CENTRAL IDAHO MOUNTAINS


CITY           SKY/WX    TMP DP  RH WIND       PRES   REMARKS
MCCALL         PTCLDY    64  46  52 W6        30.03S
HAILEY         CLEAR     64  37  36 NW7       30.07R
STANLEY          N/A     54  32  43 SE3       30.18R
SALMON         NOT AVBL
CHALLIS        CLEAR     70  35  27 W3        30.01R
$$

IDZ002-004-006-007-026-240700-
NORTHERN IDAHO


CITY           SKY/WX    TMP DP  RH WIND       PRES   REMARKS
LEWISTON       PTCLDY    85  47  26 W5        29.80R
LOWELL           N/A     69  57  65 CALM      29.85R
COEUR D`ALENE  CLEAR     68  52  56 SW5       29.83S
MULLAN PASS    CLEAR     65  42  43 W8        30.07F
$$



USA.gov is the U.S. government's official web portal to all federal, state and local government web resources and services.